Temp
12 11 11 10 10 10 10 10 10 9 9 9 9 8 8 8 8 8 8 7 7 7 7 6 6 6 6 6 6 7 8 8
11 11 10 10 10 10 9 9 9 8 9 9 9 8 8 7 7 7 7 6 6 6 6 5 5 5 5 5 6 7 7 7
10 10 10 10 9 10 10 10 9 9 8 8 8 7 7 6 6 6 6 5 5 5 4 4 4 4 4 4 5 5 6 6
10 10 10 10 10 10 10 9 9 8 8 8 7 7 6 7 6 6 5 5 4 4 4 3 4 4 4 4 4 4 5 5
10 10 10 10 10 10 9 9 8 8 8 7 7 7 7 6 5 4 4 4 4 4 4 3 3 3 3 3 3 3 4 4
11 10 10 10 10 9 9 8 8 7 7 7 7 5 5 4 4 4 3 3 3 3 3 3 3 2 2 3 3 3 3 3
10 10 10 10 10 9 9 9 8 7 7 6 6 5 4 4 4 3 3 3 3 3 3 3 3 2 2 2 2 2 2 2
9 10 10 10 9 9 8 7 7 6 6 5 5 4 4 4 4 3 3 3 3 2 2 2 2 2 2 2 2 2 2 2
9 10 9 9 8 8 7 6 6 6 5 5 5 5 4 4 3 3 3 2 2 2 2 2 2 2 2 2 2 1 1 1
10 9 8 8 8 7 7 7 7 6 5 5 5 5 4 3 3 3 2 2 2 2 2 2 2 2 2 2 2 2 1 1
8 8 7 7 7 7 6 6 5 5 5 4 4 4 3 2 2 2 1 2 2 1 1 1 1 2 1 2 1 1 1 1
7 7 7 7 6 6 5 4 4 4 3 3 3 2 3 2 2 2 1 1 1 1 1 1 1 1 0 1 1 1 0 0
6 6 6 6 6 5 5 4 4 3 2 2 2 2 1 1 1 1 1 1 0 0 0 1 1 1 1 1 2 1 0 1
6 5 5 5 5 4 4 4 3 2 2 2 1 1 1 1 1 1 1 0 0 0 0 0 1 0 0 1 3 3 2 1
5 5 5 4 4 4 4 3 3 3 2 2 1 1 1 0 0 0 0 0 0 0 0 -0 0 0 -0 -0 1 2 1 1
5 5 4 4 4 3 3 3 3 2 2 1 1 1 1 1 0 0 0 0 0 0 0 -0 -1 0 0 -0 -1 -1 -0 0
5 5 4 4 3 3 3 2 2 2 1 1 1 1 1 1 0 0 0 0 0 -0 -0 -0 -0 -1 -1 -1 -1 -1 -1 -1
5 4 4 4 3 3 2 2 1 1 1 1 1 1 0 0 -0 -0 -0 -0 -0 -0 -1 -1 -1 -2 -1 -1 -2 -2 -2 -2
5 5 4 3 3 2 2 1 1 1 1 1 0 0 0 -0 -1 -1 -1 -1 -1 -1 -1 -2 -2 -3 -3 -3 -3 -3 -3 -3
5 5 4 3 2 2 2 1 1 1 0 -0 -0 -1 -1 -1 -2 -2 -2 -2 -2 -2 -2 -3 -3 -3 -3 -4 -4 -4 -5 -5
Height
864 867 868 869 870 870 869 869 868 867 867 865 862 861 860 859 857 855 855 853 851 849 846 844 841 839 836 833 830 827 827 825
865 866 868 871 872 871 870 869 868 868 866 865 864 862 860 860 857 855 854 853 851 849 846 844 840 837 835 832 828 827 825 824
866 868 869 871 873 872 871 869 868 868 868 867 865 862 860 859 857 855 854 853 851 848 846 843 839 836 833 830 828 826 824 822
869 870 870 872 873 873 872 871 870 869 868 866 865 863 861 858 856 855 854 852 850 847 844 841 839 836 833 830 828 825 823 821
873 873 872 873 874 874 873 872 870 870 868 866 865 863 861 859 857 857 855 852 850 847 844 841 838 835 832 829 826 824 822 819
872 874 874 874 875 874 873 872 871 870 868 866 866 864 861 859 859 857 854 851 849 847 844 840 837 834 831 828 825 822 819 816
875 873 874 874 875 874 873 873 872 870 869 867 866 864 861 860 858 856 854 851 849 846 843 839 836 833 830 826 823 820 816 813
876 873 873 874 875 875 875 874 873 871 868 867 866 863 861 859 858 856 853 851 848 845 842 838 835 832 828 825 821 817 814 811
876 875 876 876 876 877 876 874 872 869 867 867 865 863 861 859 858 855 853 850 847 844 841 838 834 831 827 823 819 815 812 810
876 877 878 878 878 877 874 873 871 869 868 867 865 863 861 859 857 855 852 849 846 843 840 836 832 829 825 821 817 813 810 808
880 881 881 880 879 877 875 875 873 871 870 868 866 863 861 859 857 854 851 849 846 842 839 835 831 827 823 819 814 810 808 807
884 884 883 882 881 879 879 877 875 872 871 869 866 864 861 859 856 853 850 848 845 841 838 834 830 826 822 817 812 809 806 806
886 886 886 885 883 882 881 879 876 874 872 869 867 864 861 858 855 852 849 847 843 840 836 832 828 825 819 815 810 808 806 805
889 889 888 887 886 884 882 880 877 875 873 870 866 863 860 857 854 851 848 845 842 838 835 831 827 824 821 814 806 806 804 803
892 891 890 889 887 885 883 880 878 875 872 869 865 862 859 856 853 850 847 843 840 836 833 830 826 823 821 819 810 803 805 798
893 893 892 890 888 886 883 880 878 875 872 869 865 862 858 855 851 847 844 840 836 833 830 827 825 820 818 816 814 811 807 796
895 894 893 891 888 886 883 881 879 875 872 868 864 860 856 852 848 844 840 836 832 829 826 823 821 818 815 812 810 807 805 801
895 894 893 891 889 886 884 881 879 875 871 867 862 858 854 850 845 841 837 833 829 825 821 818 816 814 811 809 807 804 800 796
897 895 893 891 889 887 884 881 879 876 871 866 861 857 852 848 843 838 834 829 825 821 817 814 812 810 807 804 801 798 795 792
897 895 894 892 890 888 885 882 879 876 871 867 862 857 852 846 841 836 832 827 822 818 815 812 809 806 803 799 796 793 790 788
Wind_Speed
14 12 11 12 12 11 11 11 12 12 12 12 13 14 14 13 14 13 14 15 16 15 13 14 15 14 14 14 13 10 7 7
14 14 13 11 10 10 11 11 12 12 12 13 13 15 15 14 16 15 14 15 14 12 12 12 13 14 14 13 12 10 8 7
14 13 13 11 9 8 7 9 9 10 11 12 15 15 14 14 15 15 14 14 12 12 12 13 14 14 13 13 11 9 8 7
12 12 11 8 6 5 7 8 9 10 10 12 13 16 14 16 16 17 14 13 13 13 13 14 14 14 14 13 11 11 9 8
10 9 8 5 3 3 5 6 9 9 10 12 13 14 16 15 14 13 12 14 13 13 12 13 14 14 14 14 13 12 11 11
10 6 4 3 2 4 5 8 11 8 8 9 11 11 12 12 11 10 11 12 12 11 11 12 13 14 14 14 14 13 14 14
6 5 4 7 5 6 8 8 8 7 7 8 10 9 10 9 10 11 12 12 13 13 13 14 14 15 15 15 15 16 14 12
7 11 10 7 7 7 7 7 7 4 5 7 10 10 9 10 10 12 13 14 14 15 15 14 14 15 15 16 16 17 13 11
12 11 9 7 7 7 6 6 6 5 6 7 10 12 12 12 11 12 14 15 16 17 17 14 14 16 16 17 16 15 10 8
11 9 8 8 8 7 9 11 10 8 7 9 12 12 12 12 12 13 15 16 17 17 17 16 16 18 18 18 18 15 8 7
11 9 11 10 10 12 12 11 12 11 11 12 13 12 11 11 10 12 14 15 16 16 16 16 17 18 18 19 20 13 8 6
14 14 14 12 10 10 10 9 10 12 11 12 13 12 13 12 12 13 14 15 16 16 16 15 15 16 19 17 16 10 9 3
15 15 16 15 15 11 9 7 10 11 11 12 13 14 14 13 13 14 14 15 16 15 15 15 16 16 17 18 11 8 4 13
13 13 14 15 13 11 8 9 8 10 11 13 14 15 15 14 15 15 14 15 15 15 15 15 14 15 14 17 5 8 5 20
10 12 13 12 13 12 11 9 9 12 15 15 16 16 16 15 14 14 14 14 15 14 14 14 15 15 12 9 6 4 18 5
9 10 9 11 13 12 14 13 13 14 15 16 17 17 17 17 16 16 16 16 16 16 14 14 12 16 15 12 13 16 9 8
6 8 9 10 13 16 15 14 14 15 16 17 18 18 19 19 19 19 18 18 17 17 16 16 15 14 16 16 16 17 17 15
5 6 8 11 14 16 15 14 15 19 21 21 22 21 20 21 21 20 20 19 18 17 17 16 15 15 15 16 16 18 21 20
3 5 9 10 13 16 16 14 15 18 21 22 24 23 22 21 22 21 20 19 18 18 16 13 12 12 16 19 21 22 21 21
5 8 9 10 13 14 16 15 16 18 21 22 21 21 21 22 22 20 19 19 18 14 12 12 15 18 19 18 19 18 17 16
Wind_Direction
133 123 115 109 102 93 82 71 70 69 62 42 33 30 35 36 38 26 14 9 5 4 7 6 4 2 360 356 352 339 338 330
137 134 122 111 96 85 80 74 72 63 47 38 33 32 34 34 31 24 13 6 6 8 7 4 360 357 357 354 345 340 329 323
128 123 123 115 104 94 81 64 60 46 46 36 31 35 35 31 25 18 15 11 11 9 4 360 349 349 353 349 342 341 333 315
125 127 121 110 101 75 53 49 39 43 37 28 32 32 36 27 20 10 11 4 1 356 355 355 360 353 348 350 344 333 323 312
115 112 104 82 74 43 37 38 31 29 24 24 27 26 23 23 20 13 7 360 357 353 354 354 354 353 347 342 334 328 312 301
112 105 72 35 10 2 20 23 14 9 15 21 21 27 27 27 24 18 13 7 3 358 348 346 347 347 344 338 333 324 312 298
119 101 34 49 30 31 13 358 350 355 3 11 17 21 24 23 22 17 13 6 1 352 343 340 339 339 340 338 333 325 315 305
91 85 68 46 37 25 8 353 358 7 14 11 7 11 13 9 7 5 2 359 352 347 339 334 332 332 333 333 330 326 316 309
79 66 41 42 41 13 14 9 9 17 11 356 351 351 349 351 349 352 351 348 344 341 338 330 325 328 326 326 327 324 316 326
73 57 50 38 24 22 29 23 24 26 7 351 341 335 333 338 341 342 342 340 337 335 333 329 325 326 324 326 323 318 303 302
66 57 49 45 42 49 43 39 41 36 23 12 2 354 343 341 336 333 334 332 331 330 329 326 323 325 324 324 323 315 300 293
74 62 53 46 43 36 32 35 32 20 17 11 8 5 356 347 331 329 331 331 332 332 328 328 324 328 327 325 328 322 302 311
65 55 50 45 40 29 16 15 16 17 17 13 6 358 347 340 339 334 334 335 334 335 334 331 333 335 327 334 326 343 121 336
67 59 51 43 36 29 21 18 12 12 7 2 358 353 351 344 338 337 334 333 337 337 337 330 325 333 330 323 328 313 291 327
70 59 49 44 40 31 22 9 5 2 360 355 353 351 349 343 338 333 331 328 327 329 329 331 323 324 322 314 321 319 325 307
68 61 50 43 36 29 25 21 12 360 353 350 349 350 346 342 337 332 325 321 315 314 315 312 312 318 319 306 290 297 308 308
73 56 44 35 30 24 19 16 8 356 351 347 345 344 346 343 338 331 325 321 313 309 307 303 303 300 310 307 298 291 290 287
84 52 41 31 24 19 16 11 2 356 352 348 344 341 339 339 337 332 327 323 320 315 309 303 297 299 299 300 293 290 291 291
74 47 40 31 21 15 11 5 1 355 351 344 342 341 338 337 337 334 332 329 324 320 315 312 312 308 303 299 293 287 285 280
56 45 40 28 16 13 8 8 360 356 349 345 341 339 336 334 335 336 336 335 334 333 329 325 317 311 307 304 298 291 285 274